Home   Weather   Alice Springs   Past weeks

Flag for Australia Past Weather in Alice Springs, Northern Territory, Australia — Yesterday and Last 2 Weeks

Now
52 °F

Clear.


Feels Like: 50 °F
Forecast: 46 / 65 °F
Wind: 6 mph from Southeast

Location: Alice Springs Aerodrome

Current Time: Apr 27, 2017 at 10:29:10 pm

Latest Report: Apr 27, 2017 at 10:00 pm


Visibility: N/A

Pressure: 30.27 "Hg (28.23 "Hg at 581m altitude)

Humidity: 44%

Dew Point: 30 °F

Location of Alice SpringsLocation

Past Weather in Alice Springs — Graph

°F

Alice Springs Temperature Yesterday

Maximum temperature yesterday: 73 °F (at 1:30 pm)
Minimum temperature yesterday: 57 °F (at 11:30 pm)
Average temperature yesterday: 66 °F

High & Low Weather Summary for the Past Weeks

 TemperatureHumidityPressure
High93 °F (Apr 18, 3:00 pm)88% (Apr 22, 7:00 am)30.30 "Hg (Apr 22, 7:00 am)
Low45 °F (Apr 13, 5:00 am)8% (Apr 13, 3:30 pm)29.92 "Hg (Apr 24, 3:30 pm)
Average73 °F36%30.08 "Hg
* Reported Apr 12 8:30 pm — Apr 27 9:00 pm, Alice Springs, Weather by CustomWeather, © 2017

Note: Actual official high and low records may vary slightly from our data, if they occured in-between our weather recording intervals... More about our weather records

Advertising

Alice Springs Weather History for the Previous 24 Hours

Scroll right to see more
 ConditionsComfort  
Time TempWeatherWind HumidityBarometerVisibility
9:00 pm
Thu, Apr 27
54 °FClear.6 mph41%30.27 "HgN/A
8:00 pm59 °FClear.7 mph29%30.24 "HgN/A
7:30 pm61 °FClear.8 mph27%30.24 "HgN/A
7:00 pm61 °FClear.9 mph27%30.24 "HgN/A
6:30 pm63 °FSunny.12 mph25%30.24 "HgN/A
6:00 pm64 °FSunny.14 mph22%30.21 "HgN/A
5:30 pm66 °FSunny.13 mph19%30.21 "HgN/A
5:00 pm68 °FSunny.15 mph20%30.21 "HgN/A
4:30 pm68 °FSunny.14 mph20%30.21 "HgN/A
4:00 pm68 °FSunny.14 mph20%30.21 "Hg10 mi
3:30 pm68 °FSunny.14 mph20%30.21 "Hg10 mi
3:00 pm66 °FSunny.12 mph24%30.24 "Hg10 mi
2:30 pm66 °FSunny.14 mph26%30.21 "Hg10 mi
2:00 pm66 °FSunny.16 mph26%30.24 "HgN/A
1:00 pm64 °FSunny.14 mph30%30.24 "Hg10 mi
12:00 pm63 °FSunny.17 mph34%30.27 "Hg10 mi
11:00 am61 °FSunny.17 mph42%30.30 "Hg10 mi
10:30 am61 °FSunny.18 mph42%30.30 "Hg10 mi
10:00 am59 °FSunny.17 mph45%30.30 "Hg10 mi
9:30 am57 °FSunny.15 mph48%30.30 "Hg10 mi
9:00 am57 °FSunny.17 mph44%30.30 "Hg10 mi
8:00 am54 °FSunny.8 mph51%30.27 "HgN/A
7:00 am45 °FClear.6 mph71%30.27 "HgN/A
6:30 am46 °FClear.5 mph66%30.24 "HgN/A
6:00 am46 °FClear.6 mph66%30.24 "HgN/A
5:30 am48 °FClear.6 mph62%30.24 "HgN/A
5:00 am50 °FClear.7 mph58%30.24 "HgN/A
4:30 am50 °FClear.8 mph58%30.24 "HgN/A
4:00 am54 °FClear.10 mph51%30.24 "HgN/A
3:30 am55 °FClear.10 mph47%30.24 "HgN/A
3:00 am52 °FClear.8 mph58%30.24 "HgN/A
2:30 am52 °FClear.8 mph62%30.24 "HgN/A
2:00 am54 °FClear.8 mph58%30.24 "HgN/A
1:30 am52 °FClear.7 mph62%30.24 "HgN/A
12:30 am55 °FClear.6 mph55%30.24 "HgN/A
12:00 am57 °FClear.8 mph51%30.27 "HgN/A
11:30 pm
Wed, Apr 26
57 °FClear.6 mph55%30.27 "HgN/A
11:00 pm61 °FClear.9 mph45%30.27 "HgN/A
10:30 pm61 °FClear.9 mph39%30.27 "HgN/A
Weather by CustomWeather, © 2017

See weather overviewHow to use our weather pages